| time (UTC) | temp F | wind direction | speed MPH | gust MPH | rain 1hr in | rain 24hr in | rain mn in | humidity % | barometer mb |
| 20260507023003 | 36 | 298 | 0.0 | 0.0 | 0.00 | 0.00 | 0.00 | 11 | 1014.5 |
| 20260507021558 | 39 | 286 | 0.0 | 0.0 | 0.00 | 0.00 | 0.00 | 100 | 1014.4 |
| 20260507020115 | 38 | 286 | 0.0 | 0.0 | 0.00 | 0.00 | 0.00 | 100 | 1014.3 |
| 20260507014557 | 39 | 286 | 0.0 | 0.0 | 0.00 | 0.00 | 0.00 | 100 | 1014.2 |
| 20260507013045 | 38 | 286 | 0.0 | 0.0 | 0.00 | 0.00 | 0.00 | 100 | 1014.1 |
| 20260507011542 | 38 | 282 | 0.0 | 0.0 | 0.00 | 0.00 | 0.00 | 8 | 1014.1 |
| 20260507010034 | 38 | 283 | 0.0 | 0.0 | 0.00 | 0.00 | 0.00 | 17 | 1013.9 |
| 20260507004521 | 38 | 281 | 0.0 | 4.0 | 0.00 | 0.00 | 0.00 | 27 | 1013.9 |
| 20260507003016 | 39 | 246 | 0.0 | 0.0 | 0.00 | 0.00 | 0.00 | 47 | 1013.7 |
| 20260507001516 | 39 | 161 | 0.0 | 4.0 | 0.00 | 0.00 | 0.00 | 53 | 1013.8 |
| 20260507000008 | 39 | 229 | 0.0 | 1.0 | 0.00 | 0.00 | 0.00 | 54 | 1013.5 |
| 20260506234503 | 39 | 211 | 0.0 | 5.0 | 0.00 | 0.00 | 0.00 | 54 | 1013.7 |
| 20260506233100 | 40 | 234 | 0.0 | 6.0 | 0.00 | 0.00 | 0.00 | 54 | 1013.6 |
| 20260506233000 | 40 | 232 | 0.0 | 6.0 | 0.00 | 0.00 | 0.00 | 54 | 1013.5 |
| 20260506231609 | 40 | 175 | 2.0 | 7.0 | 0.00 | 0.00 | 0.00 | 54 | 1013.6 |
| 20260506230053 | 40 | 242 | 0.0 | 5.0 | 0.00 | 0.00 | 0.00 | 54 | 1013.6 |
| 20260506224538 | 40 | 235 | 1.0 | 7.0 | 0.00 | 0.00 | 0.00 | 55 | 1013.8 |
| 20260506223028 | 40 | 227 | 0.0 | 7.0 | 0.00 | 0.00 | 0.00 | 55 | 1013.8 |
| 20260506221526 | 40 | 221 | 0.0 | 6.0 | 0.00 | 0.00 | 0.00 | 55 | 1013.7 |
| 20260506220028 | 41 | 232 | 1.0 | 10.0 | 0.00 | 0.00 | 0.00 | 54 | 1013.7 |
| 20260506214516 | 41 | 247 | 1.0 | 7.0 | 0.00 | 0.00 | 0.00 | 53 | 1013.6 |
| 20260506213011 | 41 | 244 | 2.0 | 10.0 | 0.00 | 0.00 | 0.00 | 53 | 1013.5 |
| 20260506211508 | 41 | 258 | 2.0 | 7.0 | 0.00 | 0.00 | 0.00 | 53 | 1013.5 |
| 20260506210054 | 41 | 205 | 3.0 | 10.0 | 0.00 | 0.00 | 0.00 | 52 | 1013.6 |
| 20260506204542 | 41 | 225 | 2.0 | 9.0 | 0.00 | 0.00 | 0.00 | 52 | 1013.5 |
| 20260506203017 | 41 | 244 | 2.0 | 10.0 | 0.00 | 0.00 | 0.00 | 52 | 1013.7 |
| 20260506201526 | 41 | 251 | 3.0 | 9.0 | 0.00 | 0.00 | 0.00 | 52 | 1013.7 |
| 20260506200009 | 41 | 253 | 2.0 | 10.0 | 0.00 | 0.00 | 0.00 | 52 | 1013.8 |
| 20260506194507 | 41 | 236 | 3.0 | 10.0 | 0.00 | 0.00 | 0.00 | 52 | 1013.8 |
| 20260506193114 | 41 | 230 | 4.0 | 11.0 | 0.00 | 0.00 | 0.00 | 51 | 1013.8 |
| 20260506191611 | 41 | 262 | 4.0 | 10.0 | 0.00 | 0.00 | 0.00 | 50 | 1013.7 |
| 20260506190052 | 41 | 236 | 2.0 | 11.0 | 0.00 | 0.00 | 0.00 | 49 | 1013.9 |
| 20260506184559 | 41 | 254 | 4.0 | 10.0 | 0.00 | 0.00 | 0.00 | 48 | 1013.8 |
| 20260506183032 | 41 | 240 | 3.0 | 9.0 | 0.00 | 0.00 | 0.00 | 48 | 1013.7 |
| 20260506181525 | 41 | 250 | 4.0 | 12.0 | 0.00 | 0.00 | 0.00 | 48 | 1013.8 |
| 20260506180025 | 41 | 227 | 5.0 | 9.0 | 0.00 | 0.00 | 0.00 | 47 | 1013.9 |
| 20260506174524 | 42 | 253 | 4.0 | 10.0 | 0.00 | 0.00 | 0.00 | 45 | 1013.8 |
| 20260506173013 | 42 | 254 | 4.0 | 9.0 | 0.00 | 0.00 | 0.00 | 41 | 1014.0 |
| 20260506171513 | 41 | 250 | 3.0 | 10.0 | 0.00 | 0.00 | 0.00 | 39 | 1014.2 |
| 20260506170004 | 41 | 219 | 3.0 | 8.0 | 0.00 | 0.00 | 0.00 | 41 | 1014.2 |
| 20260506164600 | 41 | 257 | 4.0 | 8.0 | 0.00 | 0.00 | 0.00 | 31 | 1014.2 |
| 20260506163044 | 41 | 222 | 2.0 | 9.0 | 0.00 | 0.00 | 0.00 | 19 | 1014.3 |
| 20260506161542 | 41 | 223 | 3.0 | 7.0 | 0.00 | 0.00 | 0.00 | 10 | 1014.2 |
| 20260506160039 | 41 | 238 | 4.0 | 9.0 | 0.00 | 0.00 | 0.00 | 8 | 1014.1 |
| 20260506154530 | 41 | 259 | 3.0 | 9.0 | 0.00 | 0.00 | 0.00 | 100 | 1014.0 |
| 20260506153026 | 41 | 249 | 2.0 | 8.0 | 0.00 | 0.00 | 0.00 | 100 | 1013.9 |
| 20260506151525 | 41 | 250 | 3.0 | 9.0 | 0.00 | 0.00 | 0.00 | 100 | 1013.8 |
| 20260506150019 | 41 | 253 | 5.0 | 10.0 | 0.00 | 0.00 | 0.00 | 10 | 1013.6 |
| 20260506144512 | 40 | 270 | 5.0 | 10.0 | 0.00 | 0.00 | 0.00 | 15 | 1013.5 |
| 20260506143057 | 40 | 265 | 4.0 | 9.0 | 0.00 | 0.00 | 0.00 | 23 | 1013.4 |
| 20260506141552 | 39 | 261 | 4.0 | 8.0 | 0.00 | 0.00 | 0.00 | 24 | 1013.4 |
| 20260506140048 | 39 | 260 | 3.0 | 8.0 | 0.00 | 0.00 | 0.00 | 27 | 1013.3 |
| 20260506134543 | 39 | 231 | 3.0 | 8.0 | 0.00 | 0.00 | 0.00 | 29 | 1013.2 |
| 20260506133040 | 38 | 255 | 2.0 | 7.0 | 0.00 | 0.00 | 0.00 | 28 | 1013.1 |
| 20260506131543 | 38 | 239 | 2.0 | 9.0 | 0.00 | 0.00 | 0.00 | 28 | 1013.1 |
| 20260506130031 | 38 | 236 | 2.0 | 8.0 | 0.00 | 0.00 | 0.00 | 30 | 1013.0 |
| 20260506124531 | 38 | 214 | 1.0 | 7.0 | 0.00 | 0.00 | 0.00 | 37 | 1013.0 |
| 20260506123022 | 37 | 232 | 0.0 | 5.0 | 0.00 | 0.00 | 0.00 | 34 | 1012.8 |
| 20260506121505 | 37 | 247 | 1.0 | 7.0 | 0.00 | 0.00 | 0.00 | 31 | 1012.7 |
| 20260506120002 | 37 | 241 | 0.0 | 6.0 | 0.00 | 0.00 | 0.00 | 22 | 1012.6 |
| 20260506114558 | 36 | 246 | 1.0 | 5.0 | 0.00 | 0.00 | 0.00 | 4 | 1012.4 |
| 20260506113055 | 35 | 261 | 0.0 | 3.0 | 0.00 | 0.00 | 0.00 | 100 | 1012.2 |
| 20260506111548 | 33 | 234 | 0.0 | 2.0 | 0.00 | 0.00 | 0.00 | 100 | 1011.9 |
| 20260506110045 | 32 | 314 | 0.0 | 0.0 | 0.00 | 0.00 | 0.00 | 100 | 1011.9 |
| 20260506104544 | 31 | 315 | 0.0 | 0.0 | 0.00 | 0.00 | 0.00 | 100 | 1011.8 |
| 20260506103038 | 31 | 315 | 0.0 | 0.0 | 0.00 | 0.00 | 0.00 | 100 | 1011.8 |
| 20260506101518 | 30 | 315 | 0.0 | 0.0 | 0.00 | 0.00 | 0.00 | 100 | 1011.7 |
| 20260506100020 | 30 | 315 | 0.0 | 0.0 | 0.00 | 0.00 | 0.00 | 100 | 1011.7 |
| 20260506094548 | 29 | 315 | 0.0 | 0.0 | 0.00 | 0.00 | 0.00 | 100 | 1011.9 |
| 20260506093044 | 29 | 315 | 0.0 | 0.0 | 0.00 | 0.00 | 0.00 | 4 | 1011.8 |
| 20260506091526 | 29 | 315 | 0.0 | 0.0 | 0.00 | 0.00 | 0.00 | 10 | 1011.8 |
| 20260506090022 | 29 | 315 | 0.0 | 0.0 | 0.00 | 0.00 | 0.00 | 15 | 1011.9 |
| 20260506084523 | 29 | 315 | 0.0 | 0.0 | 0.00 | 0.00 | 0.00 | 19 | 1011.9 |
| 20260506083014 | 29 | 315 | 0.0 | 0.0 | 0.00 | 0.00 | 0.00 | 20 | 1011.9 |
| 20260506081510 | 29 | 315 | 0.0 | 0.0 | 0.00 | 0.00 | 0.00 | 33 | 1011.9 |
| 20260506073057 | 32 | 315 | 0.0 | 0.0 | 0.00 | 0.00 | 0.00 | 50 | 1011.8 |
| 20260506071540 | 34 | 315 | 0.0 | 0.0 | 0.00 | 0.00 | 0.00 | 55 | 1011.8 |
| 20260506061522 | 36 | 360 | 0.0 | 0.0 | 0.00 | 0.00 | 0.00 | 53 | 1012.0 |
| 20260506044546 | 38 | 14 | 8.0 | 13.0 | 0.00 | 0.00 | 0.00 | 48 | 1011.9 |
| 20260506043038 | 38 | 355 | 7.0 | 14.0 | 0.00 | 0.00 | 0.00 | 47 | 1011.8 |
| 20260506041534 | 37 | 5 | 6.0 | 14.0 | 0.00 | 0.00 | 0.00 | 53 | 1011.5 |
| 20260506040029 | 37 | 24 | 4.0 | 9.0 | 0.00 | 0.00 | 0.00 | 54 | 1011.3 |
| 20260506034525 | 37 | 5 | 0.0 | 7.0 | 0.00 | 0.00 | 0.00 | 54 | 1011.0 |
| 20260506033031 | 37 | 5 | 2.0 | 6.0 | 0.00 | 0.00 | 0.00 | 54 | 1011.0 |
| 20260506031602 | 37 | 111 | 0.0 | 8.0 | 0.00 | 0.00 | 0.00 | 54 | 1010.9 |
| 20260506024537 | 37 | 5 | 3.0 | 10.0 | 0.00 | 0.00 | 0.00 | 53 | 1010.9 |